Location: Hastringsfeld
(50.9620°N, 10.4787°E)
Time: 12:16:04
(UTC+00:00)

CZ-2D R/B - Pass Details

Date: 26 September 2023
Orbit: 790 x 844 km, 98.8° (Epoch: 10 December)

Event Time Altitude Azimuth Distance (km) Brightness Sun altitude
Rises 23:58:45 0° 25° (NNE) 3,407 6.2 -39.0°
Reaches altitude 10° 00:01:44 10° 41° (NE) 2,460 5.2 -38.9°
Enters shadow 00:03:55 18° 62° (ENE) 1,947 4.4 -38.8°
